FW9470 Weather Reports


time (UTC)temp
C
wind
direction
speed
KPH
gust
KPH
rain 1hr
cm
rain 24hr
cm
rain mn
cm
humidity
%
barometer
mb
20260504044541 8 0 0.0 0.0 0.00 0.00 0.00 87 1016.0
20260504043036 8 0 0.0 0.0 0.00 0.00 0.00 88 1016.1
20260504041530 8 0 0.0 1.6 0.00 0.00 0.00 87 1016.3
20260504040032 8 0 0.0 0.0 0.00 0.00 0.00 87 1016.4
20260504034539 8 0 0.0 0.0 0.00 0.00 0.00 86 1016.2
20260504033041 8 0 0.0 0.0 0.00 0.00 0.00 85 1016.2
20260504031534 9 0 0.0 0.0 0.00 0.00 0.00 85 1016.1
20260504030034 10 0 0.0 0.0 0.00 0.00 0.00 83 1016.1
20260504024533 10 0 0.0 0.0 0.00 0.00 0.00 82 1016.1
20260504023032 10 0 0.0 0.0 0.00 0.00 0.00 81 1015.9
20260504021534 11 0 0.0 0.0 0.00 0.00 0.00 79 1015.8
20260504020031 11 0 0.0 0.0 0.00 0.00 0.00 77 1015.7
20260504014533 11 0 0.0 0.0 0.00 0.00 0.00 75 1015.6
20260504013037 12 0 0.0 0.0 0.00 0.00 0.00 73 1015.3
20260504011531 12 0 0.0 0.0 0.00 0.00 0.00 72 1015.2
20260504010036 13 0 0.0 0.0 0.00 0.00 0.00 70 1015.2
20260504004530 13 0 0.0 1.6 0.00 0.00 0.00 69 1015.0
20260504003030 15 0 0.0 0.0 0.00 0.00 0.00 66 1014.7
20260504001532 16 0 0.0 1.6 0.00 0.00 0.00 61 1014.6
20260504000031 18 240 1.6 8.0 0.00 0.00 0.00 48 1014.5
20260503234534 18 247 4.8 8.0 0.00 0.00 0.00 44 1014.5
20260503233030 19 218 4.8 12.9 0.00 0.00 0.00 42 1014.6
20260503231530 20 210 4.8 11.3 0.00 0.00 0.00 41 1014.6
20260503230032 20 262 4.8 14.5 0.00 0.00 0.00 39 1014.7
20260503224530 20 221 4.8 14.5 0.00 0.00 0.00 38 1014.8
20260503223031 20 211 4.8 16.1 0.00 0.00 0.00 39 1014.8
20260503221539 20 238 8.0 16.1 0.00 0.00 0.00 39 1015.0
20260503220030 20 232 8.0 16.1 0.00 0.00 0.00 38 1014.9
20260503214531 20 217 8.0 16.1 0.00 0.00 0.00 39 1015.2
20260503213035 20 235 6.4 19.3 0.00 0.00 0.00 39 1015.3
20260503211529 20 248 8.0 16.1 0.00 0.00 0.00 38 1015.3
20260503210032 20 216 8.0 20.9 0.00 0.00 0.00 38 1015.6
20260503204532 20 301 8.0 17.7 0.00 0.00 0.00 41 1015.7
20260503203034 20 252 9.7 17.7 0.00 0.00 0.00 43 1015.9
20260503201532 20 244 8.0 20.9 0.00 0.00 0.00 43 1016.3
20260503200034 19 200 6.4 20.9 0.00 0.00 0.00 45 1016.6
20260503194531 19 312 4.8 12.9 0.00 0.00 0.00 46 1016.8
20260503193040 18 207 8.0 22.5 0.00 0.00 0.00 47 1017.3
20260503191532 18 225 6.4 19.3 0.00 0.00 0.00 45 1017.5
20260503190035 18 229 12.9 22.5 0.00 0.00 0.00 47 1017.7
20260503184530 18 274 6.4 19.3 0.00 0.00 0.00 45 1017.8
20260503183038 18 221 9.7 19.3 0.00 0.00 0.00 47 1018.0
20260503181601 17 199 3.2 12.9 0.00 0.00 0.00 50 1018.0
20260503180037 17 157 1.6 14.5 0.00 0.00 0.00 50 1018.0
20260503174532 17 241 6.4 17.7 0.00 0.00 0.00 49 1018.3
20260503173045 17 169 6.4 14.5 0.00 0.00 0.00 49 1018.5
20260503171529 17 221 6.4 14.5 0.00 0.00 0.00 50 1018.6
20260503081536 5 0 0.0 0.0 0.00 0.00 0.00 96 1016.6
20260503071536 6 0 0.0 0.0 0.00 0.00 0.00 96 1016.0
20260503054532 6 0 0.0 0.0 0.00 0.00 0.00 96 1015.6
20260503053038 7 0 0.0 0.0 0.00 0.00 0.00 96 1015.5